• Em Portugal
  • Lista de países
  • Para 7 dias
  • Temperatura da água
  • Mapas de satélite
  • Mapa do tempo
  • Widgets de tempo
  • user-avatar
    Iniciar Sessão

    Previsão horária em Novoazovsk

    Hoje, 19 Outubro, Sexta-feira

    Tempo Temperatura Precipitação Vento Pressão Humidade
    00:00 +16°C° 0 mm 5 m/s 763 mmHg 57%
    01:00 +15°C° 0 mm 5 m/s 763 mmHg 59%
    02:00 +15°C° 0 mm 5 m/s 763 mmHg 62%
    03:00 +14°C° 0 mm 4 m/s 763 mmHg 67%
    04:00 +14°C° 0 mm 5 m/s 763 mmHg 69%
    05:00 +13°C° 0 mm 5 m/s 762 mmHg 71%
    06:00 +13°C° 0 mm 5 m/s 762 mmHg 73%
    07:00 +14°C° 0 mm 6 m/s 762 mmHg 71%
    08:00 +15°C° 0 mm 6 m/s 762 mmHg 69%
    09:00 +15°C° 0 mm 6 m/s 762 mmHg 67%
    10:00 +17°C° 0 mm 6 m/s 762 mmHg 63%
    11:00 +19°C° 0 mm 5 m/s 762 mmHg 59%
    12:00 +20°C° 0 mm 5 m/s 761 mmHg 55%
    13:00 +21°C° 0 mm 5 m/s 761 mmHg 53%
    14:00 +21°C° 0 mm 4 m/s 761 mmHg 51%
    15:00 +22°C° 0 mm 4 m/s 761 mmHg 49%
    16:00 +21°C° 0 mm 3 m/s 761 mmHg 52%
    17:00 +20°C° 0 mm 2 m/s 760 mmHg 56%
    18:00 +19°C° 0 mm 2 m/s 760 mmHg 60%
    19:00 +18°C° 0 mm 2 m/s 760 mmHg 62%
    20:00 +18°C° 0 mm 2 m/s 760 mmHg 65%
    21:00 +17°C° 0 mm 2 m/s 760 mmHg 67%
    22:00 +17°C° 0 mm 2 m/s 760 mmHg 69%
    23:00 +16°C° 0 mm 2 m/s 760 mmHg 71%

    Amanhã, 20 Outubro, Sábado

    Tempo Temperatura Precipitação Vento Pressão Humidade
    00:00 +16°C° 0 mm 2 m/s 760 mmHg 73%
    01:00 +16°C° 0 mm 2 m/s 759 mmHg 75%
    02:00 +15°C° 0 mm 2 m/s 759 mmHg 76%
    03:00 +15°C° 0 mm 1 m/s 759 mmHg 78%
    04:00 +15°C° 0.1 mm 1 m/s 759 mmHg 78%
    05:00 +15°C° 0.1 mm 1 m/s 759 mmHg 79%
    06:00 +14°C° 0.1 mm 1 m/s 759 mmHg 80%
    07:00 +15°C° 0.1 mm 1 m/s 759 mmHg 76%
    08:00 +16°C° 0.1 mm 1 m/s 760 mmHg 73%
    09:00 +18°C° 0.1 mm 1 m/s 760 mmHg 69%
    10:00 +18°C° 0.1 mm 2 m/s 760 mmHg 64%
    11:00 +19°C° 0.1 mm 2 m/s 760 mmHg 58%
    12:00 +21°C° 0.1 mm 2 m/s 760 mmHg 53%
    13:00 +21°C° 0 mm 2 m/s 759 mmHg 51%
    14:00 +22°C° 0 mm 3 m/s 759 mmHg 49%
    15:00 +22°C° 0 mm 3 m/s 759 mmHg 47%
    16:00 +21°C° 0 mm 3 m/s 759 mmHg 51%
    17:00 +20°C° 0 mm 3 m/s 759 mmHg 55%
    18:00 +19°C° 0 mm 3 m/s 759 mmHg 59%
    19:00 +18°C° 0 mm 3 m/s 759 mmHg 62%
    20:00 +18°C° 0 mm 3 m/s 759 mmHg 65%
    21:00 +17°C° 0 mm 2 m/s 759 mmHg 67%
    22:00 +17°C° 0 mm 2 m/s 759 mmHg 68%
    23:00 +17°C° 0 mm 2 m/s 759 mmHg 69%

    Depois de amanhã, 21 Outubro, Domingo

    Tempo Temperatura Precipitação Vento Pressão Humidade
    00:00 +16°C° 0 mm 2 m/s 759 mmHg 70%
    01:00 +16°C° 0 mm 2 m/s 759 mmHg 71%
    02:00 +16°C° 0 mm 2 m/s 758 mmHg 72%
    03:00 +16°C° 0 mm 1 m/s 758 mmHg 73%
    04:00 +15°C° 0 mm 1 m/s 758 mmHg 74%
    05:00 +15°C° 0 mm 1 m/s 758 mmHg 75%
    06:00 +15°C° 0 mm 1 m/s 758 mmHg 77%
    07:00 +15°C° 0 mm 1 m/s 758 mmHg 73%
    08:00 +16°C° 0 mm 1 m/s 758 mmHg 70%
    09:00 +18°C° 0 mm 1 m/s 759 mmHg 67%
    10:00 +19°C° 0.1 mm 1 m/s 759 mmHg 63%
    11:00 +20°C° 0.1 mm 1 m/s 759 mmHg 59%
    12:00 +21°C° 0.1 mm 1 m/s 759 mmHg 56%
    13:00 +19°C° 0.9 mm 2 m/s 759 mmHg 60%
    14:00 +19°C° 0.9 mm 2 m/s 759 mmHg 64%
    15:00 +18°C° 0.9 mm 3 m/s 759 mmHg 68%
    16:00 +17°C° 0.9 mm 2 m/s 759 mmHg 72%
    17:00 +17°C° 0.9 mm 2 m/s 759 mmHg 76%
    18:00 +16°C° 0.9 mm 2 m/s 759 mmHg 80%
    19:00 +16°C° 0.2 mm 2 m/s 759 mmHg 81%
    20:00 +16°C° 0.2 mm 2 m/s 759 mmHg 82%
    21:00 +16°C° 0.2 mm 2 m/s 759 mmHg 83%
    22:00 +15°C° 0.1 mm 2 m/s 759 mmHg 84%
    23:00 +15°C° 0.1 mm 2 m/s 759 mmHg 85%

    22 Outubro, Segunda-feira

    Tempo Temperatura Precipitação Vento Pressão Humidade
    00:00 +15°C° 0.1 mm 2 m/s 759 mmHg 86%
    01:00 +14°C° 0 mm 3 m/s 759 mmHg 88%
    02:00 +14°C° 0 mm 3 m/s 759 mmHg 89%
    03:00 +14°C° 0 mm 3 m/s 759 mmHg 90%
    04:00 +14°C° 0 mm 3 m/s 759 mmHg 90%
    05:00 +14°C° 0 mm 3 m/s 759 mmHg 90%
    06:00 +14°C° 0 mm 3 m/s 759 mmHg 91%
    07:00 +14°C° 1.2 mm 3 m/s 759 mmHg 90%
    08:00 +14°C° 1.2 mm 3 m/s 759 mmHg 89%
    09:00 +16°C° 1.2 mm 3 m/s 759 mmHg 88%
    10:00 +16°C° 1.5 mm 3 m/s 759 mmHg 88%
    11:00 +16°C° 1.5 mm 3 m/s 759 mmHg 89%
    12:00 +16°C° 1.5 mm 3 m/s 759 mmHg 89%
    13:00 +16°C° 0.5 mm 2 m/s 759 mmHg 88%
    14:00 +17°C° 0.5 mm 2 m/s 759 mmHg 87%
    15:00 +17°C° 0.5 mm 2 m/s 758 mmHg 87%
    16:00 +18°C° 0.3 mm 1 m/s 758 mmHg 88%
    17:00 +16°C° 0.3 mm 1 m/s 758 mmHg 89%
    18:00 +16°C° 0.3 mm 1 m/s 758 mmHg 91%
    19:00 +16°C° 0.2 mm 1 m/s 758 mmHg 91%
    20:00 +16°C° 0.2 mm 1 m/s 758 mmHg 92%
    21:00 +16°C° 0.2 mm 1 m/s 758 mmHg 92%
    22:00 +15°C° 0 mm 1 m/s 758 mmHg 93%
    23:00 +15°C° 0 mm 1 m/s 758 mmHg 93%

    23 Outubro, Terça-feira

    Tempo Temperatura Precipitação Vento Pressão Humidade
    00:00 +15°C° 0 mm 1 m/s 758 mmHg 94%
    01:00 +15°C° 0 mm 1 m/s 758 mmHg 94%
    02:00 +14°C° 0 mm 1 m/s 758 mmHg 94%
    03:00 +14°C° 0 mm 1 m/s 758 mmHg 95%
    04:00 +14°C° 0 mm 1 m/s 758 mmHg 95%
    05:00 +14°C° 0 mm 1 m/s 758 mmHg 95%
    06:00 +13°C° 0 mm 0 m/s 757 mmHg 95%
    07:00 +13°C° 0 mm 0 m/s 758 mmHg 93%
    08:00 +14°C° 0 mm 0 m/s 758 mmHg 91%
    09:00 +14°C° 0 mm 0 m/s 758 mmHg 89%
    10:00 +15°C° 0 mm 0 m/s 758 mmHg 85%
    11:00 +18°C° 0 mm 1 m/s 758 mmHg 80%
    12:00 +19°C° 0 mm 1 m/s 758 mmHg 76%
    13:00 +19°C° 0.1 mm 1 m/s 758 mmHg 75%
    14:00 +19°C° 0.1 mm 1 m/s 757 mmHg 75%
    15:00 +19°C° 0.1 mm 1 m/s 757 mmHg 75%
    16:00 +19°C° 0.3 mm 1 m/s 757 mmHg 78%
    17:00 +18°C° 0.3 mm 1 m/s 757 mmHg 81%
    18:00 +18°C° 0.3 mm 1 m/s 757 mmHg 84%
    19:00 +18°C° 0 mm 1 m/s 757 mmHg 86%
    20:00 +16°C° 0 mm 1 m/s 757 mmHg 87%
    21:00 +16°C° 0 mm 1 m/s 757 mmHg 89%
    22:00 +16°C° 0 mm 1 m/s 757 mmHg 90%
    23:00 +15°C° 0 mm 1 m/s 756 mmHg 91%

    24 Outubro, Quarta-feira

    Tempo Temperatura Precipitação Vento Pressão Humidade
    00:00 +14°C° 0 mm 0 m/s 756 mmHg 92%
    01:00 +15°C° 0 mm 1 m/s 756 mmHg 92%
    02:00 +15°C° 0 mm 1 m/s 756 mmHg 92%
    03:00 +15°C° 0 mm 1 m/s 755 mmHg 92%
    04:00 +15°C° 0 mm 1 m/s 755 mmHg 92%
    05:00 +14°C° 0 mm 1 m/s 755 mmHg 92%
    06:00 +14°C° 0 mm 2 m/s 755 mmHg 93%
    07:00 +15°C° 0.1 mm 2 m/s 754 mmHg 91%
    08:00 +15°C° 0.1 mm 2 m/s 754 mmHg 89%
    09:00 +15°C° 0.1 mm 2 m/s 754 mmHg 88%
    10:00 +15°C° 1.5 mm 2 m/s 754 mmHg 88%
    11:00 +15°C° 1.5 mm 2 m/s 753 mmHg 88%
    12:00 +16°C° 1.5 mm 2 m/s 753 mmHg 88%
    13:00 +16°C° 1.6 mm 2 m/s 752 mmHg 88%
    14:00 +16°C° 1.6 mm 1 m/s 752 mmHg 87%
    15:00 +16°C° 1.6 mm 1 m/s 751 mmHg 87%
    16:00 +16°C° 0.3 mm 2 m/s 751 mmHg 86%
    17:00 +15°C° 0.3 mm 2 m/s 751 mmHg 86%
    18:00 +15°C° 0.3 mm 2 m/s 750 mmHg 86%
    19:00 +15°C° 0 mm 2 m/s 750 mmHg 85%
    20:00 +13°C° 0 mm 3 m/s 750 mmHg 85%
    21:00 +13°C° 0 mm 3 m/s 750 mmHg 84%
    22:00 +13°C° 0 mm 3 m/s 750 mmHg 83%
    23:00 +12°C° 0 mm 4 m/s 750 mmHg 82%
    Mostrar mais